Regional Weather Roundup
Issued by NWS

Home | Current Version | Previous Version | Graphics & Text | Print | Product List | Glossary Off
Versions: 1 2 3 4 5 6 7 8 9 10 11 12 13 14 15 16 17 18 19 20 21 22 23 24 25 26 27

000
ASUS45 KBOU 300907
RWRCO

WEATHER ROUNDUP FOR COLORADO
NATIONAL WEATHER SERVICE DENVER/BOULDER CO
300 AM MDT TUE MAY 30 2017

NOTE: "FAIR" INDICATES FEW OR NO CLOUDS BELOW 12000 FEET WITH NO
SIGNIFICANT WEATHER AND/OR OBSTRUCTIONS TO VISIBILITY.

COZ001>005-013-030-031-301000-
...NORTHWEST COLORADO...

CITY           SKY/WX    TMP DP  RH WIND       PRES   REMARKS
CRAIG          FAIR      38  34  85 CALM      30.24R
HAYDEN         FAIR      43  34  70 E10       30.25S
MEEKER         FAIR      39  34  82 NE7       30.24R
RABBIT EARS PA FAIR      37  30  75 S5        30.43S
STEAMBOAT SPGS FAIR      39  34  80 CALM      30.27S
WALDEN           N/A     34  30  86 E6        30.35S WCI  29
$$

COZ006>008-011-301000-
...WEST CENTRAL VALLEYS...

CITY           SKY/WX    TMP DP  RH WIND       PRES   REMARKS
GRAND JUNCTION FAIR      60  31  33 CALM      30.10S
MONTROSE       FAIR      52  28  39 SE8       30.18S
EAGLE          FAIR      42  33  70 CALM      30.30R
RIFLE          FAIR      50  30  46 E5        30.19S
DELTA          FAIR      54  29  38 E6        30.16R
NUCLA          FAIR      52  27  37 E10       30.20S
$$

COZ017>023-064>068-301000-
...SOUTHWEST COLORADO...

CITY           SKY/WX    TMP DP  RH WIND       PRES   REMARKS
DURANGO        FAIR      44  30  57 NE7       30.24R
CORTEZ         FAIR      40  32  73 CALM      30.17S
PAGOSA SPRINGS FAIR      46  28  50 CALM      30.31S
TELLURIDE      FAIR      43  26  51 SE7       30.37S
WOLF CREEK PAS FAIR      34  28  80 SW10      30.55S WCI  26
$$

COZ009-010-012-014-032>034-037-058>063-301000-
...CENTRAL COLORADO...

CITY           SKY/WX    TMP DP  RH WIND       PRES   REMARKS
ASPEN          FAIR      39  30  70 SW6       30.30S
BUENA VISTA    MOCLDY    39  33  81 CALM      30.36S
COPPER MTN     FAIR      36  28  75 SW6       30.50S
BERTHOUD PASS  FAIR      30  19  64 W16       30.49F WCI  19
COTTONWOOD PAS CLOUDY    45  34  65 CALM      30.42F
GUNNISON       FAIR      39  29  67 N7        30.33R
KREMMLING      FAIR      41  36  81 CALM      30.34S
LEADVILLE      FAIR      30  27  88 NE6       30.41S WCI  24
MONARCH PASS   FAIR      34  30  86 S9        30.60F WCI  26
SALIDA         FAIR      44  36  74 SW3       30.42S
SUNLIGHT       FAIR      36  28  75 NE6       30.47S
WILKERSON PASS FOG       32  32 100 W6        30.49F VSB 3/4 WCI  26
$$

COZ069>075-301000-
...SAN LUIS VALLEY/SANGRE DE CRISTO MOUNTAINS...

CITY           SKY/WX    TMP DP  RH WIND       PRES   REMARKS
ALAMOSA        FAIR      46  39  76 SE12      30.30S
DEL NORTE      FAIR      41  33  73 N3        30.35R
LA VETA PASS   FAIR      39  32  75 MISG      30.54S
SAGUACHE       FAIR      41  32  70 NE7       30.34S
$$

COZ035-036-038>040-301000-
...NORTHERN COLORADO FRONT RANGE...

CITY           SKY/WX    TMP DP  RH WIND       PRES   REMARKS
DENVER INTL AP FAIR      49  42  77 SW12      30.21F
DMNS CITY PARK   N/A     49  43  79 E7        30.20F
AURORA         NOT AVBL
FRONT RANGE AP FAIR      48  43  81 SW8       30.22F
ERIE MUNI ARPT FAIR      45  42  91 CALM      30.21F
BOULDER MUN AP FAIR      52  37  58 SW3       30.20F
CENTENNIAL     FAIR      46  42  86 SE8       30.23F
BROOMFIELD     FAIR      48  41  76 SW3       30.22F
FORT COLLINS   FAIR      48  43  82 N5        30.21F
LONGMONT       FAIR      51  42  73 W3        30.21F
$$

COZ041-046-047-076>085-087-088-301000-
...PIKES PEAK/PALMER DIVIDE AND SOUTHERN FOOTHILLS...

CITY           SKY/WX    TMP DP  RH WIND       PRES   REMARKS
COLO. SPRINGS  FAIR      50  44  80 SE6       30.28F
A. F. ACADEMY  FAIR      45  45  99 NE8       30.28S
SCHRIEVER AFB  FAIR      46  42  85 CALM      30.28F
CHEYENNE MTN   FAIR      49  38  63 CALM      30.24S
ELLICOTT       FAIR       1 N/A N/A CALM      30.27F
FALCON         FAIR      45  42  90 CALM      30.31S
FORT CARSON    FAIR      50  40  67 SW6       30.26F
LIMON          FAIR      38  38 100 N6        30.23F
MONUMENT HILL  FAIR      41  37  87 S8        30.30F
CANON CITY     NOT AVBL
WALSENBURG     FAIR      46  43  87 W3        30.27S
TRINIDAD       FAIR      52  44  74 W13       30.24F
$$

COZ042>045-048>051-090-091-301000-
...NORTHEAST COLORADO...

CITY           SKY/WX    TMP DP  RH WIND       PRES   REMARKS
GREELEY ARPT   FAIR      46  43  89 CALM      30.20F
AKRON          FAIR      48  41  76 W10       30.19F
BURLINGTON     FAIR      47  45  93 W7        30.18F
WRAY           FAIR      46  46 100 W6        30.16S
YUMA           FAIR      43  34  70 W8        30.16F
STERLING       NOT AVBL
HOLYOKE        NOT AVBL
FORT MORGAN    FAIR      46  43  90 W6        30.19F
$$

COZ086-089-092>099-301000-
...SOUTHEAST COLORADO...

CITY           SKY/WX    TMP DP  RH WIND       PRES   REMARKS
PUEBLO         FAIR      51  44  77 N5        30.22S
LA JUNTA       FAIR      51  48  89 NW6       30.19F
LAMAR          FAIR      50  48  93 SW8       30.16F
SPRINGFIELD      N/A     49  49 100 S6        30.21S
$$




USA.gov is the U.S. government's official web portal to all federal, state and local government web resources and services.